Bookmark and Share
Track history (hours):
 

Puropanmaru No.3

Last reported at 2014-Apr-22 20:15 UTC. Time now 2014-Apr-24 13:42 UTC.
Position N 34°01' E 134°59'.

Length 68 m; draft 4.5 m.

Type: Tanker. MMSI: 431003365.

NotesDate/timePositionNaut miles runAvg speedWind from/ knotsBaromVisibWave heightAir tempDewpointWater temp
2014-Apr-22 20:15N 34°01' E 134°59'913.0
2014-Apr-22 19:33N 34°10' E 134°59'1211.7
2014-Apr-22 18:32N 34°22' E 135°00'1212.2
2014-Apr-22 17:33N 34°34' E 135°03'8 7.8
2014-Apr-22 16:31N 34°35' E 134°53'  
2014-Apr-16 08:32N 34°56' E 139°27'1211.9
2014-Apr-16 07:33N 35°03' E 139°38'1211.9
2014-Apr-16 06:33N 35°13' E 139°46'1110.7
2014-Apr-16 05:33N 35°23' E 139°42'1111.5
2014-Apr-16 04:33N 35°30' E 139°53'9 7.4
2014-Apr-16 03:23N 35°32' E 140°03'0 0.0
2014-Apr-16 02:32N 35°32' E 140°03'0 0.0
2014-Apr-16 01:26N 35°32' E 140°03'0 0.0
2014-Apr-16 00:32N 35°32' E 140°03'0 0.0
2014-Apr-15 23:32N 35°32' E 140°03'4 4.4
2014-Apr-15 22:33N 35°30' E 139°59'3 2.7
2014-Apr-15 21:31N 35°28' E 139°56'0 0.0
2014-Apr-15 20:31N 35°29' E 139°56'0 0.1
2014-Apr-15 19:31N 35°28' E 139°56'0 0.1
2014-Apr-15 18:28N 35°29' E 139°56'0 0.0
2014-Apr-15 17:31N 35°29' E 139°56'0 0.0
2014-Apr-15 16:22N 35°29' E 139°56'0 0.0
2014-Apr-15 15:28N 35°29' E 139°56'0 0.0
2014-Apr-15 14:31N 35°29' E 139°56'0 0.0
2014-Apr-15 12:34N 35°29' E 139°56'2 1.6
2014-Apr-15 11:34N 35°29' E 139°54'1211.9
2014-Apr-15 10:34N 35°20' E 139°44'1111.4
2014-Apr-15 09:34N 35°09' E 139°46'1312.9
2014-Apr-15 08:33N 34°59' E 139°35'23310.6
2014-Apr-14 10:33N 34°09' E 134°59'1211.8
2014-Apr-14 09:32N 34°21' E 135°00'1212.3
2014-Apr-14 08:34N 34°33' E 135°04'9 8.7
2014-Apr-14 07:34N 34°37' E 134°54'32 3.2
2014-Apr-13 21:29N 34°05' E 134°48'  

Dump ship's entire track history

sailing weather and tide predictions

Puropanmaru No.3 — JD3322 — position and weather